Location: Treviso
(45.6669°N, 12.2430°E)
Time: 00:39:55
(UTC+02:00)

ISS - Pass Details

Date: 24 May 2017
Orbit: 402 x 408 km, 51.6° (Epoch: 30 May)

Event Time Altitude Azimuth Distance (km) Brightness Sun altitude
Rises 03:33:15 0° 298° (WNW) 2,331 0.0 -15.8°
Reaches altitude 10° 03:35:22 10° 302° (WNW) 1,468 -1.0 -15.6°
Maximum altitude 03:38:37 62° 24° (NNE) 461 -3.3 -15.3°
Drops below altitude 10° 03:41:52 10° 106° (ESE) 1,458 -0.8 -14.9°
Sets 03:43:57 0° 110° (ESE) 2,314 0.2 -14.7°
